When you browse on this site, cookies collect data to enhance your experience and personalize the content and advertising you see.
Visit our Privacy Policy to learn more. By continuing to use the site, you agree to this use of cookies and data.
  • In Switzerland
  • List of Countries
  • For 7 days
  • Water Temperature
  • Weather Map
  • Weather Widgets
  • user-avatar
    Login

    Hourly Weather Tucson

    Today, 29 May, Friday

    Time Temperature Precipitation Wind Pressure Humidity
    00:00 +29°C° 0 mm 2 mps 697 mmHg 20%
    01:00 +28°C° 0 mm 1 mps 697 mmHg 22%
    02:00 +25°C° 0 mm 0 mps 697 mmHg 24%
    03:00 +27°C° 0 mm 1 mps 697 mmHg 25%
    04:00 +27°C° 0 mm 2 mps 697 mmHg 25%
    05:00 +27°C° 0 mm 2 mps 697 mmHg 26%
    06:00 +29°C° 0 mm 3 mps 698 mmHg 26%
    07:00 +32°C° 0 mm 4 mps 699 mmHg 27%
    08:00 +34°C° 0 mm 5 mps 699 mmHg 27%
    09:00 +36°C° 0 mm 5 mps 699 mmHg 24%
    10:00 +37°C° 0 mm 5 mps 699 mmHg 22%
    11:00 +40°C° 0 mm 6 mps 699 mmHg 19%
    12:00 +41°C° 0 mm 5 mps 698 mmHg 17%
    13:00 +42°C° 0 mm 4 mps 698 mmHg 15%
    14:00 +43°C° 0 mm 4 mps 697 mmHg 13%
    15:00 +42°C° 0 mm 5 mps 697 mmHg 15%
    16:00 +41°C° 0 mm 7 mps 696 mmHg 17%
    17:00 +39°C° 0 mm 9 mps 695 mmHg 19%
    18:00 +38°C° 0.2 mm 6 mps 695 mmHg 22%
    19:00 +35°C° 0.2 mm 4 mps 695 mmHg 25%
    20:00 +32°C° 0.2 mm 1 mps 695 mmHg 28%
    21:00 +32°C° 0 mm 1 mps 696 mmHg 29%
    22:00 +31°C° 0 mm 1 mps 696 mmHg 30%
    23:00 +30°C° 0 mm 1 mps 696 mmHg 31%

    Tomorrow, 30 May, Saturday

    Time Temperature Precipitation Wind Pressure Humidity
    00:00 +30°C° 0 mm 1 mps 696 mmHg 29%
    01:00 +30°C° 0 mm 2 mps 696 mmHg 27%
    02:00 +29°C° 0 mm 2 mps 696 mmHg 25%
    03:00 +28°C° 0.1 mm 2 mps 696 mmHg 26%
    04:00 +27°C° 0.1 mm 1 mps 696 mmHg 27%
    05:00 +27°C° 0.1 mm 1 mps 696 mmHg 28%
    06:00 +28°C° 0.1 mm 1 mps 696 mmHg 25%
    07:00 +30°C° 0.1 mm 1 mps 697 mmHg 22%
    08:00 +32°C° 0.1 mm 1 mps 697 mmHg 20%
    09:00 +34°C° 0 mm 1 mps 697 mmHg 19%
    10:00 +35°C° 0 mm 1 mps 697 mmHg 18%
    11:00 +37°C° 0 mm 1 mps 697 mmHg 17%
    12:00 +39°C° 0 mm 1 mps 696 mmHg 16%
    13:00 +40°C° 0 mm 2 mps 696 mmHg 15%
    14:00 +41°C° 0 mm 2 mps 696 mmHg 14%
    15:00 +40°C° 0.1 mm 3 mps 695 mmHg 16%
    16:00 +40°C° 0.1 mm 4 mps 694 mmHg 17%
    17:00 +37°C° 0.1 mm 5 mps 693 mmHg 18%
    18:00 +36°C° 0.1 mm 4 mps 693 mmHg 21%
    19:00 +35°C° 0.1 mm 3 mps 694 mmHg 23%
    20:00 +33°C° 0.1 mm 3 mps 694 mmHg 25%
    21:00 +31°C° 0 mm 2 mps 694 mmHg 26%
    22:00 +30°C° 0 mm 2 mps 694 mmHg 27%
    23:00 +29°C° 0 mm 1 mps 694 mmHg 28%

    Day after tomorrow, 31 May, Sunday

    Time Temperature Precipitation Wind Pressure Humidity
    00:00 +29°C° 0 mm 1 mps 694 mmHg 29%
    01:00 +28°C° 0 mm 1 mps 694 mmHg 29%
    02:00 +28°C° 0 mm 1 mps 694 mmHg 29%
    03:00 +28°C° 0 mm 1 mps 694 mmHg 29%
    04:00 +27°C° 0 mm 1 mps 694 mmHg 29%
    05:00 +27°C° 0 mm 1 mps 694 mmHg 29%
    06:00 +29°C° 0 mm 1 mps 694 mmHg 26%
    07:00 +31°C° 0 mm 1 mps 695 mmHg 23%
    08:00 +34°C° 0 mm 2 mps 696 mmHg 20%
    09:00 +36°C° 0 mm 2 mps 696 mmHg 18%
    10:00 +38°C° 0 mm 2 mps 696 mmHg 15%
    11:00 +40°C° 0 mm 3 mps 696 mmHg 13%
    12:00 +40°C° 0 mm 3 mps 695 mmHg 12%
    13:00 +41°C° 0 mm 2 mps 695 mmHg 12%
    14:00 +42°C° 0 mm 2 mps 694 mmHg 11%
    15:00 +42°C° 0.1 mm 4 mps 694 mmHg 12%
    16:00 +41°C° 0.1 mm 5 mps 693 mmHg 14%
    17:00 +41°C° 0.1 mm 6 mps 693 mmHg 16%
    18:00 +39°C° 0.1 mm 5 mps 693 mmHg 18%
    19:00 +36°C° 0.1 mm 5 mps 693 mmHg 20%
    20:00 +34°C° 0.1 mm 4 mps 694 mmHg 23%
    21:00 +33°C° 0.3 mm 3 mps 694 mmHg 24%
    22:00 +31°C° 0.3 mm 2 mps 695 mmHg 26%
    23:00 +30°C° 0.3 mm 1 mps 695 mmHg 28%

    1 June, Monday

    Time Temperature Precipitation Wind Pressure Humidity
    00:00 +29°C° 0.3 mm 1 mps 695 mmHg 29%
    01:00 +29°C° 0.3 mm 1 mps 695 mmHg 31%
    02:00 +26°C° 0.3 mm 0 mps 695 mmHg 33%
    03:00 +28°C° 0 mm 1 mps 695 mmHg 33%
    04:00 +27°C° 0 mm 1 mps 695 mmHg 33%
    05:00 +27°C° 0 mm 1 mps 694 mmHg 33%
    06:00 +29°C° 0 mm 1 mps 695 mmHg 30%
    07:00 +30°C° 0 mm 1 mps 695 mmHg 26%
    08:00 +32°C° 0 mm 1 mps 696 mmHg 22%
    09:00 +33°C° 0 mm 1 mps 696 mmHg 21%
    10:00 +35°C° 0 mm 1 mps 696 mmHg 19%
    11:00 +36°C° 0 mm 1 mps 696 mmHg 17%
    12:00 +38°C° 0 mm 2 mps 696 mmHg 17%
    13:00 +39°C° 0 mm 3 mps 695 mmHg 16%
    14:00 +39°C° 0 mm 3 mps 695 mmHg 15%
    15:00 +36°C° 0.7 mm 5 mps 694 mmHg 25%
    16:00 +33°C° 0.7 mm 6 mps 693 mmHg 35%
    17:00 +28°C° 0.7 mm 7 mps 692 mmHg 44%
    18:00 +29°C° 0.2 mm 6 mps 693 mmHg 43%
    19:00 +29°C° 0.2 mm 5 mps 694 mmHg 42%
    20:00 +29°C° 0.2 mm 4 mps 695 mmHg 41%
    21:00 +29°C° 0 mm 3 mps 695 mmHg 42%
    22:00 +29°C° 0 mm 3 mps 696 mmHg 42%
    23:00 +29°C° 0 mm 2 mps 696 mmHg 42%

    2 June, Tuesday

    Time Temperature Precipitation Wind Pressure Humidity
    00:00 +28°C° 0.1 mm 2 mps 696 mmHg 44%
    01:00 +27°C° 0.1 mm 1 mps 695 mmHg 46%
    02:00 +27°C° 0.1 mm 1 mps 695 mmHg 48%
    03:00 +27°C° 0 mm 1 mps 695 mmHg 48%
    04:00 +26°C° 0 mm 2 mps 695 mmHg 48%
    05:00 +26°C° 0 mm 2 mps 695 mmHg 48%
    06:00 +27°C° 0 mm 2 mps 695 mmHg 44%
    07:00 +29°C° 0 mm 2 mps 696 mmHg 40%
    08:00 +30°C° 0 mm 2 mps 696 mmHg 36%
    09:00 +32°C° 0 mm 2 mps 697 mmHg 31%
    10:00 +34°C° 0 mm 2 mps 697 mmHg 27%
    11:00 +35°C° 0 mm 2 mps 697 mmHg 23%
    12:00 +36°C° 0 mm 3 mps 697 mmHg 21%
    13:00 +37°C° 0 mm 3 mps 696 mmHg 18%
    14:00 +40°C° 0 mm 4 mps 696 mmHg 16%
    15:00 +38°C° 0 mm 4 mps 696 mmHg 16%
    16:00 +39°C° 0 mm 5 mps 696 mmHg 16%
    17:00 +39°C° 0 mm 6 mps 696 mmHg 16%
    18:00 +36°C° 0 mm 6 mps 696 mmHg 17%
    19:00 +35°C° 0 mm 5 mps 696 mmHg 18%
    20:00 +34°C° 0 mm 5 mps 696 mmHg 18%
    21:00 +32°C° 0 mm 4 mps 696 mmHg 20%
    22:00 +30°C° 0 mm 3 mps 696 mmHg 21%
    23:00 +29°C° 0 mm 2 mps 696 mmHg 23%

    3 June, Wednesday

    Time Temperature Precipitation Wind Pressure Humidity
    00:00 +28°C° 0 mm 1 mps 696 mmHg 24%
    01:00 +27°C° 0 mm 1 mps 695 mmHg 25%
    02:00 +25°C° 0 mm 0 mps 695 mmHg 27%
    03:00 +25°C° 0 mm 0 mps 695 mmHg 27%
    04:00 +25°C° 0 mm 0 mps 695 mmHg 26%
    05:00 +25°C° 0 mm 0 mps 695 mmHg 26%
    06:00 +26°C° 0 mm 0 mps 695 mmHg 24%
    07:00 +28°C° 0 mm 0 mps 696 mmHg 21%
    08:00 +29°C° 0 mm 0 mps 696 mmHg 18%
    09:00 +32°C° 0 mm 1 mps 696 mmHg 18%
    10:00 +35°C° 0 mm 2 mps 696 mmHg 17%
    11:00 +36°C° 0 mm 2 mps 696 mmHg 16%
    12:00 +37°C° 0 mm 4 mps 695 mmHg 15%
    13:00 +39°C° 0 mm 5 mps 695 mmHg 15%
    14:00 +39°C° 0 mm 7 mps 695 mmHg 14%
    15:00 +39°C° 0 mm 7 mps 694 mmHg 13%
    16:00 +39°C° 0 mm 8 mps 694 mmHg 13%
    17:00 +39°C° 0 mm 8 mps 694 mmHg 12%
    18:00 +36°C° 0 mm 7 mps 694 mmHg 14%
    19:00 +34°C° 0 mm 6 mps 693 mmHg 16%
    20:00 +32°C° 0 mm 6 mps 693 mmHg 18%
    21:00 +29°C° 0 mm 4 mps 694 mmHg 20%
    22:00 +28°C° 0 mm 3 mps 694 mmHg 21%
    23:00 +26°C° 0 mm 2 mps 694 mmHg 22%
    Show more